Home   Weather   Hudson   Past weeks

Flag for USA Past Weather in Hudson, Wisconsin, USA — Yesterday and Last 2 Weeks

Now
59 °F

Partly sunny.


Feels Like: 55 °F
Forecast: 51 / 61 °F
Wind: 22 mph from Northwest

Location: St. Paul Downtown Holman Field

Current Time: Sep 26, 2016 at 12:31:57 PM

Latest Report: Sep 26, 2016 at 11:53 AM


Visibility: 10 mi

Pressure: 29.92 "Hg

Humidity: 49%

Dew Point: 40 °F

Location of HudsonLocation

Past Weather in Hudson — Graph

°F

Hudson Temperature Yesterday

Maximum temperature yesterday: 68 °F (at 12:53 AM)
Minimum temperature yesterday: 56 °F (at 11:53 PM)
Average temperature yesterday: 63 °F

High & Low Weather Summary for the Past Weeks

 TemperatureHumidityPressure
High81 °F (Sep 18, 2:53 PM)97% (Sep 15, 5:53 PM)30.35 "Hg (Sep 15, 5:53 PM)
Low46 °F (Sep 14, 6:53 AM)40% (Sep 11, 3:53 PM)29.73 "Hg (Sep 18, 3:53 PM)
Average65 °F77%29.99 "Hg
* Reported Sep 11 10:53 AM — Sep 26 10:53 AM, Hudson, Weather by CustomWeather, © 2016

Note: Actual official high and low records may vary slightly from our data, if they occured in-between our weather recording intervals... More about our weather records

Advertising

Hudson Weather History for the Previous 24 Hours

Scroll right to see more
 ConditionsComfort  
Time TempWeatherWind HumidityBarometerVisibility
10:53 AM
Mon, Sep 26
59 °FSunny.16 mph51%29.91 "Hg10 mi
9:53 AM56 °FSunny.22 mph55%29.93 "Hg10 mi
8:53 AM53 °FSunny.14 mph61%29.94 "Hg10 mi
7:53 AM52 °FScattered clouds.16 mph64%29.94 "Hg10 mi
6:53 AM52 °FClear.15 mph64%29.94 "Hg10 mi
5:53 AM52 °FClear.14 mph64%29.93 "Hg10 mi
4:53 AM51 °FClear.14 mph74%29.92 "Hg10 mi
3:53 AM53 °FClear.9 mph72%29.93 "Hg10 mi
2:53 AM54 °FClear.12 mph67%29.94 "Hg10 mi
1:53 AM56 °FPartly cloudy.16 mph62%29.95 "Hg10 mi
12:53 AM55 °FPassing clouds.10 mph67%29.96 "Hg10 mi
11:53 PM
Sun, Sep 25
56 °FPassing clouds.12 mph65%29.97 "Hg10 mi
10:53 PM57 °FClear.14 mph62%29.98 "Hg10 mi
9:53 PM57 °FPassing clouds.12 mph67%29.98 "Hg10 mi
8:53 PM59 °FPassing clouds.14 mph60%29.97 "Hg10 mi
7:53 PM60 °FOvercast.14 mph65%29.94 "Hg10 mi
6:53 PM60 °FOvercast.14 mph72%29.92 "Hg10 mi
6:02 PM59 °FMore clouds than sun.14 mph78%29.92 "Hg10 mi
5:53 PM59 °FLight rain. Mostly cloudy.20 mph78%29.91 "Hg10 mi
4:53 PM61 °FMore clouds than sun.13 mph81%29.89 "Hg10 mi
3:53 PM63 °FMostly cloudy.20 mph73%29.88 "Hg10 mi
2:53 PM64 °FPartly sunny.12 mph68%29.88 "Hg10 mi
1:53 PM63 °FOvercast.16 mph68%29.90 "Hg10 mi
12:53 PM65 °FPartly sunny.20 mph66%29.90 "Hg10 mi
Weather by CustomWeather, © 2016

See weather overviewHow to use our weather pages